Year,Month,Day,Hour,Minute,Value (Times are PST for temperature in C)
2017,07,01,00,00,18.80
2017,07,01,00,01,18.70
2017,07,01,00,02,18.70
2017,07,01,00,03,18.70
2017,07,01,00,04,18.70
2017,07,01,00,05,18.70
2017,07,01,00,06,18.60
2017,07,01,00,07,18.60
2017,07,01,00,08,18.60
2017,07,01,00,09,18.60
2017,07,01,00,10,18.50
2017,07,01,00,11,18.50
2017,07,01,00,12,18.50
2017,07,01,00,13,18.40
2017,07,01,00,14,18.30
2017,07,01,00,15,18.30
2017,07,01,00,16,18.20
2017,07,01,00,17,18.20
2017,07,01,00,18,18.20
2017,07,01,00,19,18.20
2017,07,01,00,20,18.10
2017,07,01,00,21,18.10
2017,07,01,00,22,18.10
2017,07,01,00,23,18.00
2017,07,01,00,24,17.90
2017,07,01,00,25,17.90
2017,07,01,00,26,17.90
2017,07,01,00,27,17.90
2017,07,01,00,28,17.80
2017,07,01,00,29,17.80
2017,07,01,00,30,17.70
2017,07,01,00,31,17.70
2017,07,01,00,32,17.70
2017,07,01,00,33,17.70
2017,07,01,00,34,17.60
2017,07,01,00,35,17.60
2017,07,01,00,36,17.50
2017,07,01,00,37,17.50
2017,07,01,00,38,17.40
2017,07,01,00,39,17.40
2017,07,01,00,40,17.40
2017,07,01,00,41,17.30
2017,07,01,00,42,17.30
2017,07,01,00,43,17.30
2017,07,01,00,44,17.30
2017,07,01,00,45,17.30
2017,07,01,00,46,17.20
2017,07,01,00,47,17.20
2017,07,01,00,48,17.20
2017,07,01,00,49,17.10
2017,07,01,00,50,17.10
2017,07,01,00,51,17.10
2017,07,01,00,52,17.00
2017,07,01,00,53,17.00
2017,07,01,00,54,17.00
2017,07,01,00,55,16.90
2017,07,01,00,56,16.90
2017,07,01,00,57,16.80
2017,07,01,00,58,16.80
2017,07,01,00,59,16.70
2017,07,01,01,00,16.70
2017,07,01,01,01,16.70
2017,07,01,01,02,16.70
2017,07,01,01,03,16.70
2017,07,01,01,04,16.60
2017,07,01,01,05,16.60
2017,07,01,01,06,16.60
2017,07,01,01,07,16.60
2017,07,01,01,08,16.60
2017,07,01,01,09,16.50
2017,07,01,01,10,16.40
2017,07,01,01,11,16.40
2017,07,01,01,12,16.40
2017,07,01,01,13,16.40
2017,07,01,01,14,16.40
2017,07,01,01,15,16.40
2017,07,01,01,16,16.30
2017,07,01,01,17,16.30
2017,07,01,01,18,16.30
2017,07,01,01,19,16.30
2017,07,01,01,20,16.20
2017,07,01,01,21,16.20
2017,07,01,01,22,16.20
2017,07,01,01,23,16.20
2017,07,01,01,24,16.10
2017,07,01,01,25,16.10
2017,07,01,01,26,16.10
2017,07,01,01,27,16.10
2017,07,01,01,28,16.10
2017,07,01,01,29,16.10
2017,07,01,01,30,16.10
2017,07,01,01,31,16.10
2017,07,01,01,32,16.10
2017,07,01,01,33,16.10
2017,07,01,01,34,16.10
2017,07,01,01,35,16.00
2017,07,01,01,36,15.90
2017,07,01,01,37,15.90
2017,07,01,01,38,15.90
2017,07,01,01,39,15.90
2017,07,01,01,40,15.90
2017,07,01,01,41,15.90
2017,07,01,01,42,15.90
2017,07,01,01,43,15.90
2017,07,01,01,44,15.90
2017,07,01,01,45,15.90
2017,07,01,01,46,15.90
2017,07,01,01,47,15.90
2017,07,01,01,48,15.90
2017,07,01,01,49,15.90
2017,07,01,01,50,15.90
2017,07,01,01,51,15.90
2017,07,01,01,52,15.90
2017,07,01,01,53,15.90
2017,07,01,01,54,15.90
2017,07,01,01,55,15.90
2017,07,01,01,56,15.90
2017,07,01,01,57,15.90
2017,07,01,01,58,15.90
2017,07,01,01,59,15.90
2017,07,01,02,00,15.90
2017,07,01,02,01,15.90
2017,07,01,02,02,15.90
2017,07,01,02,03,15.90
2017,07,01,02,04,15.90
2017,07,01,02,05,15.90
2017,07,01,02,06,15.90
2017,07,01,02,07,16.10
2017,07,01,02,08,16.10
2017,07,01,02,09,16.10
2017,07,01,02,10,16.10
2017,07,01,02,11,16.00
2017,07,01,02,12,15.90
2017,07,01,02,13,15.90
2017,07,01,02,14,15.90
2017,07,01,02,15,16.00
2017,07,01,02,16,15.90
2017,07,01,02,17,15.90
2017,07,01,02,18,15.90
2017,07,01,02,19,15.90
2017,07,01,02,20,15.90
2017,07,01,02,21,15.90
2017,07,01,02,22,15.90
2017,07,01,02,23,15.90
2017,07,01,02,24,15.90
2017,07,01,02,25,15.90
2017,07,01,02,26,15.80
2017,07,01,02,27,15.80
2017,07,01,02,28,15.80
2017,07,01,02,29,15.80
2017,07,01,02,30,15.80
2017,07,01,02,31,15.80
2017,07,01,02,32,15.80
2017,07,01,02,33,15.80
2017,07,01,02,34,15.80
2017,07,01,02,35,15.80
2017,07,01,02,36,15.80
2017,07,01,02,37,15.80
2017,07,01,02,38,15.80
2017,07,01,02,39,15.80
2017,07,01,02,40,15.80
